Location: Biltmore Gardens
(41.6070°N, 83.4666°W)
Time: 13:16:06
(UTC+00:00)

Iridium 4 Rocket - Pass Details

Date: 14 July 2020
Orbit: 583 x 906 km, 86.9° (Epoch: 04 August)

Event Time Altitude Azimuth Distance (km) Brightness Sun altitude
Exits shadow 07:03:21 38° 260° (W) 1,288 4.4 -23.9°
Maximum altitude 07:04:01 39° 277° (W) 1,252 4.4 -23.9°
Drops below altitude 10° 07:09:04 10° 346° (NNW) 2,389 6.7 -23.5°
Sets 07:11:31 0° 354° (N) 3,272 7.8 -23.3°
